SCP
0 0 1 1 1 1 0 0 0 0 0 0 0 0 0 0 0 0 0 0 0 1 1 1 1 1 1 1 1 1 1 1 1 1 1 0 0 0 0 0 0 0 0 0 1 1 1 1 1
0 0 1 1 1 1 0 0 0 0 0 0 0 0 0 0 0 0 0 0 0 1 1 1 1 1 1 1 1 1 1 1 1 1 1 1 0 0 0 0 0 0 0 1 1 1 1 1 1
0 0 1 1 1 0 0 0 0 0 0 0 0 1 1 1 1 1 1 1 1 1 1 1 1 1 1 1 1 1 1 1 1 1 1 1 0 0 0 0 0 0 0 0 1 1 1 0 0
0 0 1 1 0 0 0 0 0 0 0 1 1 1 1 1 1 1 1 1 1 1 1 1 1 1 1 1 1 1 1 1 1 1 1 1 0 0 0 0 0 0 0 0 0 0 0 0 0
0 0 0 0 0 0 0 0 0 0 1 1 1 1 1 1 1 1 1 1 1 1 1 1 1 1 1 1 1 1 1 1 1 1 1 0 0 0 0 0 0 0 0 0 0 0 0 0 0
0 0 0 0 0 0 0 0 0 1 1 1 1 1 1 1 1 1 1 1 1 1 1 1 1 1 1 1 1 1 1 1 1 1 1 0 0 0 0 0 0 0 0 0 0 0 0 0 0
0 0 0 0 0 0 0 0 0 1 1 1 1 1 1 1 1 1 1 1 1 1 1 1 1 1 1 1 1 0 0 0 1 1 0 0 0 0 0 0 0 0 0 0 0 0 0 0 0
0 0 0 0 0 0 0 0 0 1 1 1 1 1 1 1 1 1 1 1 1 1 1 1 1 1 1 1 1 0 0 0 0 0 0 0 0 0 0 0 0 0 0 0 0 0 0 0 0
0 0 0 0 0 0 0 0 0 0 0 1 1 1 1 1 1 1 1 1 1 1 1 1 1 1 1 1 1 1 1 0 0 0 0 0 0 0 0 0 0 0 0 0 0 0 0 0 0
0 0 0 0 0 0 0 0 0 0 0 0 1 1 1 1 1 1 1 1 1 1 1 1 1 1 1 1 1 1 1 1 1 0 0 0 0 0 0 0 0 0 0 0 0 0 0 0 0
0 0 0 0 0 0 0 0 0 0 0 0 0 0 0 0 0 1 1 1 1 1 1 1 1 1 1 1 1 1 1 1 1 1 0 0 0 0 0 0 0 0 0 0 0 0 0 0 0
0 0 0 0 0 0 0 0 0 0 0 0 0 0 0 0 0 0 1 1 1 1 1 1 1 1 1 1 1 1 1 1 1 1 0 0 0 0 0 0 0 0 0 0 0 0 0 0 0
0 0 0 0 0 0 0 0 0 0 0 0 0 0 0 0 0 0 0 1 1 1 1 1 1 1 1 1 1 1 1 1 1 1 0 0 0 0 0 0 0 0 0 0 0 0 0 0 0
0 0 0 0 0 0 0 0 0 0 0 0 0 0 0 1 1 0 0 0 1 1 1 1 1 1 1 1 1 1 1 1 1 1 1 0 0 0 0 0 0 0 0 0 0 0 0 0 0
0 0 0 0 0 0 0 0 0 0 0 0 0 0 0 0 0 0 0 0 1 1 1 1 1 1 1 0 0 1 1 1 1 1 1 0 0 0 0 0 0 0 0 0 0 0 0 0 0
0 0 0 0 0 0 0 0 0 0 0 0 0 0 0 0 0 0 0 0 1 1 1 1 1 1 1 0 0 1 1 1 1 1 1 0 0 0 0 0 0 0 0 0 0 0 0 0 0
0 0 0 0 0 0 0 0 0 0 0 0 0 0 0 0 0 0 0 1 1 1 1 1 1 1 1 1 0 1 1 1 1 1 1 0 0 0 0 0 0 0 0 0 0 0 0 0 0
0 0 0 0 0 0 0 0 0 0 0 0 0 0 0 0 0 0 0 1 1 1 1 1 1 1 1 1 1 1 1 1 1 1 1 0 0 0 0 0 0 0 0 0 0 0 0 0 0
0 0 0 0 0 0 0 0 0 0 0 0 0 0 0 0 0 0 0 0 1 1 1 1 1 1 1 1 1 1 1 1 1 0 0 0 0 0 0 0 0 0 0 0 0 0 0 0 0
0 0 0 0 0 0 0 0 0 0 0 0 0 0 0 0 0 0 0 0 1 1 1 1 1 1 1 1 1 1 1 1 0 0 0 0 0 0 0 0 0 0 0 0 0 0 0 0 0
0 0 0 0 0 0 0 0 0 0 0 0 0 0 0 0 0 1 0 0 0 1 1 1 1 1 2 1 1 1 1 1 0 0 0 0 0 0 0 0 0 0 0 0 0 0 0 0 0
0 0 0 0 0 0 0 0 0 0 0 0 0 0 0 0 0 1 1 0 0 1 1 1 1 2 2 2 2 1 1 1 0 0 0 0 0 0 0 0 0 0 0 0 0 0 0 0 0
0 0 0 0 0 0 0 0 0 0 0 0 0 0 0 0 0 1 1 1 1 1 1 1 1 2 2 2 2 2 1 1 1 1 1 0 0 0 0 0 0 0 0 0 0 0 0 0 0
0 0 0 0 0 0 0 0 0 0 0 0 0 0 0 0 0 1 1 1 1 1 1 1 1 1 2 3 3 2 2 1 1 1 1 0 0 0 0 0 0 0 0 0 0 0 0 0 0
0 0 0 0 0 0 0 0 0 0 0 0 0 0 0 0 0 0 1 1 1 0 0 0 1 1 2 2 2 2 2 2 1 1 1 0 0 0 0 0 0 0 0 0 0 0 0 0 0
0 0 0 0 0 0 0 0 0 0 0 0 0 0 0 0 0 0 0 0 0 0 0 0 0 0 1 2 2 2 2 2 1 1 1 0 0 0 0 0 0 0 0 0 0 0 0 0 0
0 0 0 0 0 0 0 0 0 0 0 0 0 0 0 0 0 0 0 0 0 0 0 0 0 0 0 1 2 2 2 1 1 1 0 0 0 0 0 0 0 0 0 0 0 0 0 0 0
0 0 0 0 0 0 0 0 0 0 0 0 0 0 0 0 0 0 0 0 0 0 0 0 0 0 0 0 1 1 1 1 1 0 0 0 0 0 0 0 0 0 0 0 0 0 0 0 0
0 0 0 0 0 0 0 0 0 0 0 0 0 0 0 0 0 0 0 0 0 0 0 0 0 0 0 0 0 0 0 0 0 0 0 0 0 0 0 0 0 0 0 0 0 0 0 0 0
0 0 0 0 0 0 0 0 0 0 0 0 0 0 0 0 0 0 0 0 0 0 0 0 0 0 0 0 0 0 0 0 0 0 0 0 0 0 0 0 0 0 0 0 0 0 0 0 0
Wind_Speed
8 3 2 3 3 3 5 4 3 4 3 2 2 0 1 2 2 3 4 2 2 2 2 2 4 5 6 7 8 8 9 9 9 10 10 10 10 10 11 11 10 10 11 11 11 11 10 11 10
5 2 2 3 5 7 6 5 5 3 3 4 3 2 3 4 5 4 2 2 2 3 2 2 4 5 6 7 8 8 9 9 9 9 9 10 10 10 10 10 10 10 10 11 11 11 10 10 10
2 2 2 3 5 7 6 5 5 4 4 2 3 2 2 4 3 3 2 1 2 3 3 3 5 6 7 7 8 8 8 9 9 9 9 10 10 10 10 10 9 10 10 10 10 10 10 9 9
2 2 1 4 7 5 3 4 5 6 4 2 2 4 4 4 3 2 2 2 3 3 3 4 5 6 7 7 8 8 8 8 8 9 9 10 10 10 10 9 9 9 9 9 9 9 9 9 8
2 2 4 5 6 4 2 3 6 6 4 3 2 3 4 3 3 3 3 3 4 4 3 4 6 7 7 7 8 8 8 8 8 9 9 9 9 9 9 9 9 9 9 9 9 8 9 8 8
2 3 6 9 8 5 3 2 5 4 4 3 2 3 4 3 3 3 3 3 4 4 4 4 6 7 7 7 8 8 8 8 8 9 9 9 9 8 9 8 8 8 8 8 8 8 8 8 8
3 3 6 7 7 7 4 3 4 4 4 2 1 3 4 3 2 3 4 4 4 4 4 4 4 5 6 7 8 8 8 8 8 9 9 9 9 9 9 8 8 8 8 8 8 7 7 7 7
1 3 5 7 8 7 5 4 2 2 2 2 0 2 3 3 2 3 4 4 4 4 4 4 3 3 4 5 7 7 8 8 8 9 8 8 8 8 8 8 8 7 7 8 7 7 7 7 7
2 4 6 7 7 6 6 5 3 1 3 2 1 2 3 4 4 4 4 4 3 3 3 3 3 3 3 3 4 5 6 7 6 6 7 5 4 4 5 7 8 8 7 7 7 7 7 5 5
1 5 4 1 1 4 5 3 3 3 2 1 1 2 3 4 4 4 3 3 3 2 2 2 2 2 2 2 2 2 3 3 3 3 3 2 3 3 4 6 7 7 7 6 6 6 4 3 2
2 2 3 3 3 4 5 3 1 3 2 2 2 2 4 4 3 3 3 3 2 2 1 1 1 2 2 2 2 1 1 2 3 3 3 2 2 2 2 2 2 3 3 3 3 3 2 3 3
4 4 3 3 3 4 4 4 2 1 1 2 1 2 4 4 3 3 3 2 2 2 2 1 1 2 2 2 2 2 1 2 2 2 3 2 2 2 2 2 2 2 2 2 2 2 3 3 3
4 4 4 5 6 6 5 3 1 1 1 1 2 3 4 3 2 2 2 1 1 1 1 1 2 2 2 2 2 2 2 2 2 2 2 2 2 2 2 2 2 2 2 2 2 2 2 2 3
5 7 6 4 4 3 3 1 1 2 1 1 2 2 3 3 2 2 2 2 2 2 2 2 2 3 3 2 2 2 2 2 2 2 2 2 1 1 1 1 2 2 2 2 2 2 2 2 2
7 6 4 2 1 2 1 1 3 2 2 2 2 2 2 2 2 3 3 3 3 2 2 2 2 3 3 3 3 2 2 2 1 1 1 1 1 1 1 1 1 2 2 2 2 2 2 2 2
4 4 3 2 1 0 3 4 1 1 4 4 3 3 3 3 3 3 3 3 3 3 3 2 2 3 3 3 3 2 2 2 1 1 1 1 1 1 1 1 1 2 1 1 2 2 2 2 2
3 3 3 2 2 0 3 3 0 1 3 3 3 4 4 4 4 4 3 3 3 3 3 3 3 3 4 4 3 3 2 2 1 1 1 1 1 0 0 1 1 1 1 1 1 2 2 2 3
4 4 3 2 2 1 2 4 3 2 2 4 4 4 4 5 5 4 3 3 3 3 3 4 3 4 3 3 2 2 2 1 1 1 0 1 1 1 0 0 1 1 1 1 1 2 2 2 3
4 4 3 1 1 1 2 5 6 4 4 5 5 5 5 6 5 3 3 3 2 3 3 4 4 4 4 3 3 3 2 2 2 1 1 1 1 1 1 1 1 1 1 1 2 1 1 2 2
5 5 3 1 1 1 2 6 7 6 6 6 6 6 6 6 4 3 3 3 3 3 3 4 3 3 4 4 3 2 2 2 1 1 1 1 1 1 1 1 1 1 1 1 1 2 1 1 2
3 2 3 2 1 0 4 5 3 2 3 4 5 6 5 6 6 4 3 3 3 4 5 4 4 3 4 4 3 2 2 2 2 2 2 2 2 2 2 2 2 1 1 1 2 2 2 2 1
2 1 3 2 1 0 2 3 2 2 3 3 5 5 6 5 5 5 4 3 4 5 4 4 4 3 3 4 4 5 3 3 3 2 2 2 2 2 2 3 2 2 2 2 2 2 2 2 2
2 2 3 2 1 1 0 3 4 1 4 3 3 4 4 4 4 4 4 4 4 3 3 4 4 3 3 4 5 5 4 3 2 2 2 2 2 2 2 3 3 3 3 2 2 2 2 2 3
3 3 3 1 1 1 1 3 4 3 3 2 2 2 2 2 3 4 3 3 3 2 2 3 3 4 3 4 4 5 5 4 3 3 3 2 2 2 3 3 3 3 2 3 2 2 2 2 3
2 2 1 1 1 2 1 4 7 3 3 3 3 2 2 2 2 3 3 3 2 2 2 2 3 4 4 4 5 5 5 5 5 4 4 3 2 2 3 3 3 3 3 3 3 3 3 3 3
1 2 1 1 2 1 2 6 5 1 2 3 4 3 3 2 2 2 3 2 3 2 2 2 3 4 4 4 5 5 5 4 4 5 4 4 3 3 3 3 3 3 3 3 3 3 3 3 4
3 2 1 2 2 2 4 5 6 3 4 3 3 3 2 2 2 2 2 2 2 3 3 3 4 4 4 4 4 4 4 4 5 4 4 4 4 3 4 4 4 3 3 4 4 3 4 3 4
2 3 3 3 2 2 4 5 4 4 4 3 3 3 2 2 2 2 2 2 2 3 3 2 3 3 3 3 3 3 4 4 4 4 4 4 4 4 4 4 4 4 4 4 4 4 3 4 4
2 3 2 2 1 2 3 4 3 5 4 5 4 3 2 2 2 2 2 2 2 2 2 2 3 3 3 2 3 3 3 4 4 4 4 4 4 4 4 4 4 4 4 4 4 4 4 5 4
2 3 4 3 3 3 3 5 0 4 4 4 4 4 3 3 3 3 3 2 2 2 2 2 2 3 3 3 2 3 3 3 3 4 4 4 4 4 4 4 4 4 4 4 5 5 5 5 5
Wind_Direction
329 321 256 223 212 210 209 186 174 148 138 79 58 80 98 52 12 63 57 71 77 110 110 97 59 74 81 79 78 77 77 78 77 76 75 73 71 71 70 66 65 65 65 66 69 68 69 70 71
327 301 229 223 227 215 202 193 180 145 104 114 92 90 101 81 50 58 62 49 93 109 110 108 70 82 87 85 81 79 79 80 79 78 77 76 75 72 70 67 65 66 65 64 65 65 67 70 69
305 294 230 206 223 226 196 172 166 125 114 134 110 65 54 71 69 60 43 86 122 108 103 95 79 89 90 89 86 83 80 79 79 79 78 77 76 73 70 66 65 65 65 64 64 63 62 65 67
247 172 182 220 209 224 218 153 153 146 132 97 130 116 95 51 27 43 84 117 119 109 103 100 79 88 89 88 88 86 82 79 78 78 78 76 74 71 69 66 63 63 62 60 60 59 59 58 61
231 199 194 208 213 201 194 163 163 168 152 127 143 119 107 69 54 84 112 122 116 113 110 107 79 81 84 86 85 84 82 78 76 76 77 76 73 70 68 65 63 61 59 57 55 55 55 54 53
183 204 212 211 201 188 172 168 175 171 140 130 141 128 103 89 81 93 112 118 110 106 111 112 81 76 78 78 80 78 76 74 72 72 73 73 71 68 66 65 63 60 59 58 55 53 53 51 47
205 200 217 207 194 194 179 170 189 177 163 139 156 147 126 140 94 109 113 114 112 104 104 108 107 94 80 77 73 72 71 70 70 72 70 67 65 64 60 59 59 59 58 57 54 52 50 47 44
284 177 188 196 196 191 160 154 131 177 146 87 285 191 142 142 133 126 119 119 115 108 102 97 97 108 106 97 78 75 71 68 68 67 65 65 66 64 58 56 53 53 55 52 48 46 45 42 39
231 207 203 197 194 170 155 158 122 80 124 116 54 8 44 115 142 138 136 131 121 103 98 103 99 90 105 107 96 89 79 73 72 68 63 66 76 75 66 54 49 49 47 46 43 40 37 34 43
228 209 204 165 164 147 151 154 140 151 151 161 131 57 91 129 148 153 155 153 149 133 102 102 115 108 108 106 109 107 103 98 90 82 77 71 66 57 56 58 48 43 39 42 37 29 26 5 22
67 149 128 106 96 131 143 133 132 182 190 224 219 172 148 147 157 176 183 178 176 163 123 91 114 122 117 116 106 96 101 99 88 78 72 70 71 64 55 62 54 45 36 36 30 16 9 12 9
101 77 94 111 99 119 133 134 127 265 325 5 334 154 156 164 181 203 203 191 183 169 151 126 124 132 124 118 111 95 93 95 88 82 67 67 68 59 53 47 38 32 22 14 13 11 16 17 18
105 103 84 90 95 98 106 120 117 259 320 17 74 140 164 167 189 225 234 211 197 189 169 155 161 149 143 134 124 110 100 95 92 90 80 64 70 60 52 48 35 25 15 10 4 5 11 19 20
108 111 102 88 96 97 106 77 249 255 189 135 131 173 189 185 199 217 236 228 213 207 195 177 177 170 156 149 143 135 123 113 103 87 76 73 65 62 57 53 38 22 7 0 353 358 357 6 5
121 110 100 63 80 120 116 265 241 253 174 187 201 210 225 224 223 235 242 240 240 223 207 193 182 184 175 166 159 147 135 134 120 107 93 79 55 41 43 52 37 11 356 356 353 357 356 0 359
143 148 152 83 53 107 215 235 180 161 181 203 216 225 238 241 243 254 259 251 243 235 218 204 192 189 188 179 173 165 150 153 147 139 131 111 75 32 31 38 23 358 352 357 353 349 349 347 339
168 174 165 119 59 122 211 245 75 158 200 224 232 239 245 250 254 254 257 255 245 233 222 206 197 198 191 184 181 176 162 163 159 146 142 135 117 75 41 20 6 337 344 348 342 339 337 337 340
169 165 160 157 63 90 206 254 276 219 220 243 246 248 251 254 259 259 255 250 247 235 222 212 201 197 188 180 181 181 172 174 170 177 176 177 164 169 201 261 339 331 335 339 336 335 339 330 330
135 139 136 101 33 357 250 276 282 269 246 251 247 245 250 256 262 256 251 247 245 238 220 219 212 198 187 188 192 194 196 192 188 197 208 222 230 225 225 246 261 299 314 330 326 324 326 335 330
130 129 128 105 65 326 308 287 277 268 251 250 248 247 251 257 257 250 241 229 230 231 223 219 214 205 199 202 200 201 194 196 202 191 211 231 248 256 242 242 247 261 282 292 319 318 303 320 329
116 152 154 147 12 248 300 283 252 260 255 255 253 253 254 254 256 251 246 240 235 237 229 218 212 208 209 204 190 178 184 195 200 212 220 225 231 241 253 250 248 249 252 269 282 287 283 283 293
131 130 150 165 220 17 327 289 264 257 276 260 248 241 245 248 251 253 255 255 247 245 237 228 215 207 207 200 196 194 202 216 222 222 223 222 227 239 249 252 244 243 245 254 260 266 274 271 277
105 115 129 140 140 280 257 263 271 243 267 262 247 241 247 253 255 254 254 256 256 252 238 225 213 209 205 201 200 203 216 225 229 220 231 237 237 240 244 247 243 242 244 247 251 255 262 263 269
134 132 114 136 212 259 259 249 270 218 233 243 237 242 244 253 261 260 260 263 267 263 246 228 215 219 213 209 210 209 218 221 220 224 232 238 246 244 241 242 241 245 244 244 245 245 246 251 261
177 185 172 186 241 250 128 245 260 255 238 239 252 263 272 279 275 269 261 256 262 261 252 246 228 229 220 216 221 223 227 228 229 230 231 235 240 244 244 238 239 243 245 241 238 238 242 244 249
187 255 227 225 240 280 187 242 257 252 261 253 256 267 280 283 284 280 270 264 263 259 252 245 238 237 228 222 226 227 229 232 238 237 235 235 241 244 245 241 240 243 245 240 234 237 241 246 249
157 164 11 104 87 274 256 268 279 233 238 229 232 238 252 263 271 283 280 269 267 264 254 247 246 242 236 232 230 229 227 230 235 237 237 242 247 250 240 238 242 246 248 247 245 242 242 244 247
358 139 161 179 203 254 274 255 247 224 213 202 211 222 249 267 269 277 274 269 267 268 266 255 246 247 247 240 235 239 236 236 239 237 237 243 248 249 247 245 247 249 248 244 243 250 249 246 249
147 152 162 141 253 228 256 255 213 220 211 206 217 227 238 259 272 273 278 273 269 271 266 258 253 253 253 248 243 242 244 241 237 237 240 242 248 249 246 244 248 250 250 245 239 242 245 245 250
240 209 190 205 202 223 249 268 128 226 239 233 237 240 248 258 274 281 279 274 269 269 268 264 260 257 257 252 241 242 249 244 242 245 248 243 244 247 250 248 245 248 249 249 245 244 244 245 250